Time,TemperatureF,DewpointF,PressureIn,WindDirection,WindDirectionDegrees,WindSpeedMPH,WindSpeedGustMPH,Humidity,HourlyPrecipIn,Conditions,Clouds,dailyrainin,SoftwareType,DateUTC
2013-07-28 00:00:00,67.5,66.0,29.89,SSW,205,1.0,9.0,95,0.00,,,0.00,Wunderground v.1.15,2013-07-28 04:00:00,
2013-07-28 00:05:00,67.5,66.0,29.89,ESE,113,1.0,9.0,95,0.00,,,0.00,Wunderground v.1.15,2013-07-28 04:05:00,
2013-07-28 00:10:00,67.5,66.0,29.89,WSW,242,0.0,9.0,95,0.00,,,0.00,Wunderground v.1.15,2013-07-28 04:10:00,
2013-07-28 00:15:00,67.5,66.0,29.89,SSE,149,0.0,9.0,95,0.00,,,0.00,Wunderground v.1.15,2013-07-28 04:15:00,
2013-07-28 00:20:00,67.5,66.3,29.89,ESE,121,0.0,9.0,96,0.00,,,0.00,Wunderground v.1.15,2013-07-28 04:20:00,
2013-07-28 00:25:00,67.5,66.3,29.89,SSE,160,1.0,9.0,96,0.00,,,0.00,Wunderground v.1.15,2013-07-28 04:25:00,
2013-07-28 00:30:00,67.4,66.2,29.89,SSE,155,1.0,1.0,96,0.00,,,0.00,Wunderground v.1.15,2013-07-28 04:30:00,
2013-07-28 00:35:00,67.3,65.8,29.89,SE,137,1.0,9.0,95,0.00,,,0.00,Wunderground v.1.15,2013-07-28 04:35:00,
2013-07-28 00:40:00,67.2,65.7,29.88,SSE,156,1.0,1.0,95,0.00,,,0.00,Wunderground v.1.15,2013-07-28 04:40:00,
2013-07-28 00:45:00,67.2,65.7,29.88,SSW,201,1.0,9.0,95,0.00,,,0.00,Wunderground v.1.15,2013-07-28 04:45:00,
2013-07-28 00:55:00,67.2,65.7,29.88,SSE,166,1.0,9.0,95,0.00,,,0.00,Wunderground v.1.15,2013-07-28 04:55:00,
2013-07-28 01:00:00,67.1,65.6,29.88,South,181,1.0,9.0,95,0.00,,,0.00,Wunderground v.1.15,2013-07-28 05:00:00,
2013-07-28 08:00:00,64.2,63.3,29.91,SE,127,0.0,9.0,97,0.00,,,0.00,Wunderground v.1.15,2013-07-28 12:00:00,
2013-07-28 08:05:00,64.3,63.4,29.91,SE,128,0.0,9.0,97,0.00,,,0.00,Wunderground v.1.15,2013-07-28 12:05:00,
2013-07-28 08:15:00,64.3,63.4,29.92,SE,128,0.0,9.0,97,0.00,,,0.00,Wunderground v.1.15,2013-07-28 12:15:00,
2013-07-28 08:25:00,64.5,63.6,29.92,SE,134,0.0,9.0,97,0.00,,,0.00,Wunderground v.1.15,2013-07-28 12:25:00,
2013-07-28 08:30:00,64.7,63.8,29.92,SE,134,0.0,9.0,97,0.00,,,0.00,Wunderground v.1.15,2013-07-28 12:30:00,
2013-07-28 08:35:00,64.8,63.9,29.92,SE,134,0.0,9.0,97,0.00,,,0.00,Wunderground v.1.15,2013-07-28 12:35:00,
2013-07-28 08:40:00,65.0,64.1,29.92,SE,134,0.0,9.0,97,0.00,,,0.00,Wunderground v.1.15,2013-07-28 12:40:00,
2013-07-28 08:45:00,65.2,64.3,29.92,SE,129,0.0,9.0,97,0.00,,,0.00,Wunderground v.1.15,2013-07-28 12:45:00,
2013-07-28 08:50:00,65.4,64.5,29.92,SE,129,0.0,9.0,97,0.00,,,0.00,Wunderground v.1.15,2013-07-28 12:50:00,
2013-07-28 08:55:00,65.6,64.7,29.92,SE,130,0.0,9.0,97,0.00,,,0.00,Wunderground v.1.15,2013-07-28 12:55:00,
2013-07-28 09:00:00,65.6,64.7,29.92,SE,129,0.0,9.0,97,0.00,,,0.00,Wunderground v.1.15,2013-07-28 13:00:00,
2013-07-28 09:05:00,65.8,64.9,29.92,SSE,152,0.0,9.0,97,0.00,,,0.00,Wunderground v.1.15,2013-07-28 13:05:00,
2013-07-28 09:10:00,65.8,64.9,29.92,ESE,110,0.0,9.0,97,0.00,,,0.00,Wunderground v.1.15,2013-07-28 13:10:00,
2013-07-28 09:15:00,66.0,65.1,29.92,North,4,0.0,9.0,97,0.00,,,0.00,Wunderground v.1.15,2013-07-28 13:15:00,
2013-07-28 09:20:00,66.2,65.0,29.92,NE,40,0.0,9.0,96,0.00,,,0.00,Wunderground v.1.15,2013-07-28 13:20:00,
2013-07-28 09:25:00,66.4,64.9,29.92,NE,43,0.0,9.0,95,0.00,,,0.00,Wunderground v.1.15,2013-07-28 13:25:00,
2013-07-28 09:30:00,66.9,65.7,29.92,SE,134,0.0,9.0,96,0.00,,,0.00,Wunderground v.1.15,2013-07-28 13:30:00,
2013-07-28 09:35:00,67.4,65.9,29.92,SE,141,0.0,9.0,95,0.00,,,0.00,Wunderground v.1.15,2013-07-28 13:35:00,
2013-07-28 09:40:00,68.0,65.9,29.92,SE,142,0.0,9.0,93,0.00,,,0.00,Wunderground v.1.15,2013-07-28 13:40:00,
2013-07-28 09:50:00,68.8,66.1,29.92,SE,141,0.0,9.0,91,0.00,,,0.00,Wunderground v.1.15,2013-07-28 13:50:00,
2013-07-28 09:55:00,68.8,65.7,29.92,SE,141,0.0,9.0,90,0.00,,,0.00,Wunderground v.1.15,2013-07-28 13:55:00,
2013-07-28 10:05:00,69.6,65.9,29.92,ESE,115,0.0,9.0,88,0.00,,,0.00,Wunderground v.1.15,2013-07-28 14:05:00,
2013-07-28 10:10:00,70.3,66.2,29.92,SSE,162,1.0,9.0,87,0.00,,,0.00,Wunderground v.1.15,2013-07-28 14:10:00,
2013-07-28 10:15:00,70.7,66.0,29.92,SE,124,0.0,9.0,85,0.00,,,0.00,Wunderground v.1.15,2013-07-28 14:15:00,
2013-07-28 10:20:00,70.9,65.8,29.92,SE,136,1.0,1.0,84,0.00,,,0.00,Wunderground v.1.15,2013-07-28 14:20:00,
2013-07-28 10:25:00,71.6,66.5,29.92,SE,139,1.0,4.0,84,0.00,,,0.00,Wunderground v.1.15,2013-07-28 14:25:00,
2013-07-28 10:30:00,71.7,66.3,29.92,East,86,1.0,1.0,83,0.00,,,0.00,Wunderground v.1.15,2013-07-28 14:30:00,
2013-07-28 10:35:00,72.0,66.9,29.92,East,86,1.0,9.0,84,0.00,,,0.00,Wunderground v.1.15,2013-07-28 14:35:00,
2013-07-28 10:40:00,72.4,67.3,29.92,ESE,118,0.0,9.0,84,0.00,,,0.00,Wunderground v.1.15,2013-07-28 14:40:00,
2013-07-28 10:45:00,72.8,66.6,29.92,East,95,0.0,9.0,81,0.00,,,0.00,Wunderground v.1.15,2013-07-28 14:45:00,
2013-07-28 10:50:00,72.8,66.3,29.92,South,183,1.0,1.0,80,0.00,,,0.00,Wunderground v.1.15,2013-07-28 14:50:00,
2013-07-28 10:55:00,72.8,66.6,29.92,SSW,205,1.0,9.0,81,0.00,,,0.00,Wunderground v.1.15,2013-07-28 14:55:00,
2013-07-28 11:00:00,73.1,67.6,29.92,ESE,121,0.0,9.0,83,0.00,,,0.00,Wunderground v.1.15,2013-07-28 15:00:00,
2013-07-28 11:05:00,73.5,66.6,29.92,North,356,0.0,9.0,79,0.00,,,0.00,Wunderground v.1.15,2013-07-28 15:05:00,
2013-07-28 11:10:00,74.1,67.9,29.92,ESE,105,0.0,9.0,81,0.00,,,0.00,Wunderground v.1.15,2013-07-28 15:10:00,
2013-07-28 11:15:00,74.1,67.2,29.92,ESE,106,0.0,9.0,79,0.00,,,0.00,Wunderground v.1.15,2013-07-28 15:15:00,
2013-07-28 11:25:00,75.2,67.5,29.93,SE,141,0.0,9.0,77,0.00,,,0.00,Wunderground v.1.15,2013-07-28 15:25:00,
2013-07-28 11:30:00,75.5,67.8,29.93,SE,129,0.0,9.0,77,0.00,,,0.00,Wunderground v.1.15,2013-07-28 15:30:00,
2013-07-28 11:35:00,75.5,67.4,29.93,SE,141,1.0,9.0,76,0.00,,,0.00,Wunderground v.1.15,2013-07-28 15:35:00,
2013-07-28 11:40:00,75.3,67.6,29.92,SSE,148,1.0,1.0,77,0.00,,,0.00,Wunderground v.1.15,2013-07-28 15:40:00,
2013-07-28 11:45:00,75.5,67.8,29.92,SW,215,1.0,9.0,77,0.00,,,0.00,Wunderground v.1.15,2013-07-28 15:45:00,
2013-07-28 11:50:00,76.2,66.9,29.92,East,90,1.0,9.0,73,0.00,,,0.00,Wunderground v.1.15,2013-07-28 15:50:00,
2013-07-28 11:55:00,76.7,68.2,29.92,SE,139,0.0,9.0,75,0.00,,,0.00,Wunderground v.1.15,2013-07-28 15:55:00,
2013-07-28 12:00:00,76.8,67.5,29.92,South,190,1.0,1.0,73,0.00,,,0.00,Wunderground v.1.15,2013-07-28 16:00:00,
2013-07-28 12:05:00,76.7,67.8,29.92,SE,126,1.0,9.0,74,0.00,,,0.00,Wunderground v.1.15,2013-07-28 16:05:00,
2013-07-28 12:10:00,76.7,67.0,29.92,ESE,121,1.0,1.0,72,0.00,,,0.00,Wunderground v.1.15,2013-07-28 16:10:00,
2013-07-28 12:15:00,76.8,68.3,29.92,West,262,1.0,9.0,75,0.00,,,0.00,Wunderground v.1.15,2013-07-28 16:15:00,
2013-07-28 12:20:00,77.0,68.1,29.92,SSE,160,1.0,9.0,74,0.00,,,0.00,Wunderground v.1.15,2013-07-28 16:20:00,
2013-07-28 12:25:00,77.0,66.0,29.92,South,176,1.0,9.0,69,0.00,,,0.00,Wunderground v.1.15,2013-07-28 16:25:00,
2013-07-28 12:30:00,77.1,67.0,29.92,SSE,153,1.0,1.0,71,0.00,,,0.00,Wunderground v.1.15,2013-07-28 16:30:00,
2013-07-28 12:35:00,77.7,66.3,29.92,SE,128,1.0,9.0,68,0.00,,,0.00,Wunderground v.1.15,2013-07-28 16:35:00,
2013-07-28 12:40:00,77.7,66.7,29.92,ESE,107,1.0,9.0,69,0.00,,,0.00,Wunderground v.1.15,2013-07-28 16:40:00,
2013-07-28 12:45:00,77.0,66.5,29.92,SE,139,1.0,9.0,70,0.00,,,0.00,Wunderground v.1.15,2013-07-28 16:45:00,
2013-07-28 12:50:00,76.7,66.6,29.92,ESE,122,1.0,1.0,71,0.00,,,0.00,Wunderground v.1.15,2013-07-28 16:50:00,
2013-07-28 12:55:00,76.3,66.2,29.92,SE,146,0.0,9.0,71,0.00,,,0.00,Wunderground v.1.15,2013-07-28 16:55:00,
2013-07-28 13:00:00,76.0,67.5,29.92,SE,146,0.0,9.0,75,0.00,,,0.00,Wunderground v.1.15,2013-07-28 17:00:00,
2013-07-28 13:05:00,75.6,65.9,29.92,SE,138,0.0,9.0,72,0.00,,,0.00,Wunderground v.1.15,2013-07-28 17:05:00,
2013-07-28 13:10:00,75.1,66.6,29.92,SE,141,0.0,9.0,75,0.00,,,0.00,Wunderground v.1.15,2013-07-28 17:10:00,
2013-07-28 13:15:00,74.0,67.1,29.92,SE,139,0.0,9.0,79,0.00,,,0.00,Wunderground v.1.15,2013-07-28 17:15:00,
2013-07-28 13:20:00,74.3,67.7,29.92,SE,132,0.0,9.0,80,0.00,,,0.00,Wunderground v.1.15,2013-07-28 17:20:00,
2013-07-28 13:25:00,74.9,66.8,29.92,SE,145,0.0,9.0,76,0.00,,,0.00,Wunderground v.1.15,2013-07-28 17:25:00,
2013-07-28 13:30:00,75.6,66.3,29.92,NNW,338,1.0,1.0,73,0.00,,,0.00,Wunderground v.1.15,2013-07-28 17:30:00,
2013-07-28 13:35:00,76.2,66.9,29.92,WSW,253,1.0,9.0,73,0.00,,,0.00,Wunderground v.1.15,2013-07-28 17:35:00,
2013-07-28 13:40:00,76.9,66.4,29.92,NW,316,0.0,9.0,70,0.00,,,0.00,Wunderground v.1.15,2013-07-28 17:40:00,
2013-07-28 13:45:00,77.5,66.9,29.92,SE,128,0.0,9.0,70,0.00,,,0.00,Wunderground v.1.15,2013-07-28 17:45:00,
2013-07-28 13:50:00,78.2,66.3,29.91,SE,138,1.0,1.0,67,0.00,,,0.00,Wunderground v.1.15,2013-07-28 17:50:00,
2013-07-28 13:55:00,78.8,67.3,29.91,ENE,76,0.0,9.0,68,0.00,,,0.00,Wunderground v.1.15,2013-07-28 17:55:00,
2013-07-28 14:00:00,78.5,66.2,29.91,East,99,1.0,9.0,66,0.00,,,0.00,Wunderground v.1.15,2013-07-28 18:00:00,
2013-07-28 14:05:00,78.3,66.4,29.91,SE,135,1.0,9.0,67,0.00,,,0.00,Wunderground v.1.15,2013-07-28 18:05:00,
2013-07-28 14:10:00,77.9,66.9,29.91,WSW,242,0.0,9.0,69,0.00,,,0.00,Wunderground v.1.15,2013-07-28 18:10:00,
2013-07-28 14:15:00,76.7,67.0,29.91,WSW,242,0.0,9.0,72,0.00,,,0.00,Wunderground v.1.15,2013-07-28 18:15:00,
2013-07-28 14:20:00,76.1,67.6,29.91,South,179,0.0,9.0,75,0.00,,,0.00,Wunderground v.1.15,2013-07-28 18:20:00,
2013-07-28 14:25:00,76.3,68.2,29.91,ESE,118,0.0,9.0,76,0.00,,,0.00,Wunderground v.1.15,2013-07-28 18:25:00,
2013-07-28 14:30:00,76.8,67.5,29.90,SW,235,0.0,9.0,73,0.00,,,0.00,Wunderground v.1.15,2013-07-28 18:30:00,
2013-07-28 14:35:00,76.9,67.2,29.90,SSE,162,0.0,9.0,72,0.00,,,0.00,Wunderground v.1.15,2013-07-28 18:35:00,
2013-07-28 14:40:00,77.3,66.7,29.91,SSW,203,1.0,1.0,70,0.00,,,0.00,Wunderground v.1.15,2013-07-28 18:40:00,
2013-07-28 14:45:00,77.8,66.8,29.90,SW,222,0.0,9.0,69,0.00,,,0.00,Wunderground v.1.15,2013-07-28 18:45:00,
2013-07-28 14:50:00,78.3,68.5,29.90,WNW,293,0.0,9.0,72,0.00,,,0.00,Wunderground v.1.15,2013-07-28 18:50:00,
2013-07-28 14:55:00,78.5,67.5,29.90,SSE,153,1.0,9.0,69,0.00,,,0.00,Wunderground v.1.15,2013-07-28 18:55:00,
2013-07-28 15:00:00,78.9,67.9,29.90,West,270,1.0,9.0,69,0.00,,,0.00,Wunderground v.1.15,2013-07-28 19:00:00,
2013-07-28 15:05:00,79.0,67.5,29.90,SSE,153,1.0,9.0,68,0.00,,,0.00,Wunderground v.1.15,2013-07-28 19:05:00,
2013-07-28 15:10:00,79.2,66.4,29.90,SSE,153,1.0,9.0,65,0.00,,,0.00,Wunderground v.1.15,2013-07-28 19:10:00,
2013-07-28 15:15:00,79.4,67.5,29.90,ESE,112,0.0,9.0,67,0.00,,,0.00,Wunderground v.1.15,2013-07-28 19:15:00,
2013-07-28 15:20:00,79.3,66.5,29.89,WSW,240,1.0,1.0,65,0.00,,,0.00,Wunderground v.1.15,2013-07-28 19:20:00,
2013-07-28 15:25:00,79.0,66.2,29.90,South,169,1.0,9.0,65,0.00,,,0.00,Wunderground v.1.15,2013-07-28 19:25:00,
2013-07-28 15:30:00,79.1,68.1,29.90,SSE,157,1.0,1.0,69,0.00,,,0.00,Wunderground v.1.15,2013-07-28 19:30:00,
2013-07-28 15:35:00,78.7,66.8,29.90,SSE,158,0.0,9.0,67,0.00,,,0.00,Wunderground v.1.15,2013-07-28 19:35:00,
2013-07-28 15:40:00,78.5,67.5,29.89,SW,233,0.0,9.0,69,0.00,,,0.00,Wunderground v.1.15,2013-07-28 19:40:00,
2013-07-28 15:45:00,78.5,67.9,29.89,SW,226,0.0,9.0,70,0.00,,,0.00,Wunderground v.1.15,2013-07-28 19:45:00,
2013-07-28 15:50:00,78.7,68.5,29.89,SSE,149,0.0,9.0,71,0.00,,,0.00,Wunderground v.1.15,2013-07-28 19:50:00,
2013-07-28 15:55:00,78.7,67.7,29.88,South,169,1.0,9.0,69,0.00,,,0.00,Wunderground v.1.15,2013-07-28 19:55:00,
2013-07-28 16:00:00,78.8,66.9,29.88,SSW,194,0.0,9.0,67,0.00,,,0.00,Wunderground v.1.15,2013-07-28 20:00:00,
2013-07-28 16:05:00,78.7,66.8,29.88,South,178,0.0,9.0,67,0.00,,,0.00,Wunderground v.1.15,2013-07-28 20:05:00,
2013-07-28 16:10:00,78.7,66.8,29.88,SE,146,0.0,9.0,67,0.00,,,0.00,Wunderground v.1.15,2013-07-28 20:10:00,
2013-07-28 16:15:00,78.5,67.5,29.88,SSE,153,0.0,9.0,69,0.00,,,0.00,Wunderground v.1.15,2013-07-28 20:15:00,
2013-07-28 16:25:00,77.9,66.5,29.88,WSW,249,1.0,9.0,68,0.00,,,0.00,Wunderground v.1.15,2013-07-28 20:25:00,
2013-07-28 16:30:00,77.6,66.6,29.88,WSW,242,1.0,9.0,69,0.00,,,0.00,Wunderground v.1.15,2013-07-28 20:30:00,
2013-07-28 16:35:00,77.3,66.3,29.88,SE,143,1.0,9.0,69,0.00,,,0.00,Wunderground v.1.15,2013-07-28 20:35:00,
2013-07-28 16:45:00,76.9,66.0,29.89,SSE,157,0.0,2.0,69,0.00,,,0.00,Wunderground v.1.15,2013-07-28 20:45:00,
2013-07-28 16:50:00,76.7,67.0,29.88,SW,224,0.0,9.0,72,0.00,,,0.00,Wunderground v.1.15,2013-07-28 20:50:00,
2013-07-28 16:55:00,76.1,67.6,29.89,WSW,249,0.0,9.0,75,0.00,,,0.00,Wunderground v.1.15,2013-07-28 20:55:00,
2013-07-28 17:00:00,75.5,66.6,29.89,WSW,255,0.0,9.0,74,0.00,,,0.00,Wunderground v.1.15,2013-07-28 21:00:00,
2013-07-28 17:05:00,75.5,67.4,29.89,West,269,0.0,9.0,76,0.00,,,0.00,Wunderground v.1.15,2013-07-28 21:05:00,
2013-07-28 17:10:00,75.3,66.8,29.89,SSE,157,1.0,1.0,75,0.00,,,0.00,Wunderground v.1.15,2013-07-28 21:10:00,
2013-07-28 17:15:00,75.1,67.0,29.89,WSW,246,1.0,9.0,76,0.00,,,0.00,Wunderground v.1.15,2013-07-28 21:15:00,
2013-07-28 17:20:00,74.9,66.8,29.89,SSW,201,1.0,1.0,76,0.00,,,0.00,Wunderground v.1.15,2013-07-28 21:20:00,
2013-07-28 17:25:00,74.9,67.2,29.89,South,177,0.0,9.0,77,0.00,,,0.00,Wunderground v.1.15,2013-07-28 21:25:00,
2013-07-28 17:30:00,74.6,66.5,29.90,WSW,256,0.0,9.0,76,0.00,,,0.00,Wunderground v.1.15,2013-07-28 21:30:00,
2013-07-28 17:35:00,74.3,66.2,29.90,WSW,238,1.0,9.0,76,0.00,,,0.00,Wunderground v.1.15,2013-07-28 21:35:00,
2013-07-28 17:40:00,74.0,66.7,29.90,ESE,118,1.0,9.0,78,0.00,,,0.00,Wunderground v.1.15,2013-07-28 21:40:00,
2013-07-28 17:45:00,73.6,66.7,29.89,WSW,252,1.0,9.0,79,0.00,,,0.00,Wunderground v.1.15,2013-07-28 21:45:00,
2013-07-28 17:50:00,73.1,65.1,29.90,WSW,255,1.0,1.0,76,0.00,,,0.00,Wunderground v.1.15,2013-07-28 21:50:00,
2013-07-28 17:55:00,72.9,66.0,29.90,WSW,242,0.0,9.0,79,0.00,,,0.00,Wunderground v.1.15,2013-07-28 21:55:00,
2013-07-28 18:00:00,72.7,66.2,29.90,SW,233,0.0,9.0,80,0.00,,,0.00,Wunderground v.1.15,2013-07-28 22:00:00,
2013-07-28 18:05:00,72.4,66.2,29.90,WSW,251,0.0,9.0,81,0.00,,,0.00,Wunderground v.1.15,2013-07-28 22:05:00,
2013-07-28 18:10:00,72.1,65.9,29.90,WSW,251,0.0,9.0,81,0.00,,,0.00,Wunderground v.1.15,2013-07-28 22:10:00,
2013-07-28 18:15:00,71.8,66.0,29.90,WSW,252,0.0,9.0,82,0.00,,,0.00,Wunderground v.1.15,2013-07-28 22:15:00,
2013-07-28 18:20:00,71.7,65.6,29.90,WSW,251,0.0,9.0,81,0.00,,,0.00,Wunderground v.1.15,2013-07-28 22:20:00,
2013-07-28 18:25:00,71.5,65.7,29.90,West,273,0.0,9.0,82,0.00,,,0.00,Wunderground v.1.15,2013-07-28 22:25:00,
2013-07-28 18:35:00,71.1,65.3,29.90,West,266,0.0,9.0,82,0.00,,,0.00,Wunderground v.1.15,2013-07-28 22:35:00,
2013-07-28 18:40:00,70.9,65.1,29.90,West,266,0.0,9.0,82,0.00,,,0.00,Wunderground v.1.15,2013-07-28 22:40:00,
2013-07-28 18:45:00,70.6,64.8,29.90,West,266,0.0,9.0,82,0.00,,,0.00,Wunderground v.1.15,2013-07-28 22:45:00,
2013-07-28 18:50:00,70.3,64.5,29.90,West,269,0.0,9.0,82,0.00,,,0.00,Wunderground v.1.15,2013-07-28 22:50:00,
2013-07-28 18:55:00,70.3,64.5,29.90,SW,236,0.0,9.0,82,0.00,,,0.00,Wunderground v.1.15,2013-07-28 22:55:00,
2013-07-28 19:05:00,69.7,64.3,29.91,WSW,248,0.0,9.0,83,0.00,,,0.00,Wunderground v.1.15,2013-07-28 23:05:00,
2013-07-28 19:10:00,69.6,64.5,29.91,WSW,247,0.0,9.0,84,0.00,,,0.00,Wunderground v.1.15,2013-07-28 23:10:00,
2013-07-28 19:15:00,69.3,64.6,29.91,WSW,248,0.0,9.0,85,0.00,,,0.00,Wunderground v.1.15,2013-07-28 23:15:00,
2013-07-28 19:20:00,69.1,64.4,29.91,WSW,248,0.0,9.0,85,0.00,,,0.00,Wunderground v.1.15,2013-07-28 23:20:00,
2013-07-28 19:25:00,68.9,64.2,29.92,WSW,248,0.0,9.0,85,0.00,,,0.00,Wunderground v.1.15,2013-07-28 23:25:00,
2013-07-28 19:35:00,68.6,64.6,29.92,WSW,248,0.0,9.0,87,0.00,,,0.00,Wunderground v.1.15,2013-07-28 23:35:00,
2013-07-28 19:40:00,68.4,64.0,29.92,WSW,248,0.0,9.0,86,0.00,,,0.00,Wunderground v.1.15,2013-07-28 23:40:00,
2013-07-28 19:45:00,68.2,64.2,29.92,WSW,248,0.0,9.0,87,0.00,,,0.00,Wunderground v.1.15,2013-07-28 23:45:00,
2013-07-28 19:50:00,68.0,64.0,29.92,WSW,247,0.0,9.0,87,0.00,,,0.00,Wunderground v.1.15,2013-07-28 23:50:00,
2013-07-28 20:00:00,67.8,64.4,29.92,WSW,248,0.0,9.0,89,0.00,,,0.00,Wunderground v.1.15,2013-07-29 00:00:00,
2013-07-28 20:05:00,67.7,64.0,29.92,WSW,248,0.0,9.0,88,0.00,,,0.00,Wunderground v.1.15,2013-07-29 00:05:00,
2013-07-28 20:10:00,67.5,63.8,29.93,WSW,249,0.0,9.0,88,0.00,,,0.00,Wunderground v.1.15,2013-07-29 00:10:00,
2013-07-28 20:15:00,67.3,63.6,29.93,WSW,250,0.0,9.0,88,0.00,,,0.00,Wunderground v.1.15,2013-07-29 00:15:00,
2013-07-28 20:20:00,67.2,63.5,29.93,WSW,249,0.0,9.0,88,0.00,,,0.00,Wunderground v.1.15,2013-07-29 00:20:00,
2013-07-28 20:25:00,67.1,63.7,29.94,WSW,249,0.0,9.0,89,0.00,,,0.00,Wunderground v.1.15,2013-07-29 00:25:00,
2013-07-28 20:35:00,66.6,62.9,29.94,WSW,249,0.0,9.0,88,0.00,,,0.00,Wunderground v.1.15,2013-07-29 00:35:00,
2013-07-28 20:40:00,66.6,63.3,29.94,WSW,249,0.0,9.0,89,0.00,,,0.00,Wunderground v.1.15,2013-07-29 00:40:00,
2013-07-28 20:45:00,66.5,63.2,29.94,WSW,249,0.0,9.0,89,0.00,,,0.00,Wunderground v.1.15,2013-07-29 00:45:00,
2013-07-28 20:50:00,66.3,62.6,29.94,WSW,250,0.0,9.0,88,0.00,,,0.00,Wunderground v.1.15,2013-07-29 00:50:00,
2013-07-28 20:55:00,66.1,62.4,29.95,WSW,249,0.0,9.0,88,0.00,,,0.00,Wunderground v.1.15,2013-07-29 00:55:00,
2013-07-28 21:00:00,65.9,61.9,29.95,WSW,250,0.0,9.0,87,0.00,,,0.00,Wunderground v.1.15,2013-07-29 01:00:00,
2013-07-28 21:05:00,65.9,62.2,29.95,WSW,250,0.0,9.0,88,0.00,,,0.00,Wunderground v.1.15,2013-07-29 01:05:00,
2013-07-28 21:10:00,65.9,61.9,29.95,WSW,250,0.0,9.0,87,0.00,,,0.00,Wunderground v.1.15,2013-07-29 01:10:00,
2013-07-28 21:15:00,66.0,62.3,29.95,WSW,250,0.0,9.0,88,0.00,,,0.00,Wunderground v.1.15,2013-07-29 01:15:00,
2013-07-28 21:20:00,66.0,62.3,29.95,WSW,250,0.0,9.0,88,0.00,,,0.00,Wunderground v.1.15,2013-07-29 01:20:00,
2013-07-28 21:25:00,65.8,61.8,29.95,WSW,249,0.0,9.0,87,0.00,,,0.00,Wunderground v.1.15,2013-07-29 01:25:00,
2013-07-28 21:30:00,65.6,61.9,29.95,WSW,250,0.0,9.0,88,0.00,,,0.00,Wunderground v.1.15,2013-07-29 01:30:00,
2013-07-28 21:35:00,65.5,61.9,29.96,WSW,250,0.0,9.0,88,0.00,,,0.00,Wunderground v.1.15,2013-07-29 01:35:00,
2013-07-28 21:40:00,65.4,61.4,29.96,WSW,250,0.0,9.0,87,0.00,,,0.00,Wunderground v.1.15,2013-07-29 01:40:00,
2013-07-28 21:45:00,65.3,61.7,29.96,WSW,250,0.0,9.0,88,0.00,,,0.00,Wunderground v.1.15,2013-07-29 01:45:00,
2013-07-28 21:50:00,65.1,61.5,29.96,WSW,250,0.0,9.0,88,0.00,,,0.00,Wunderground v.1.15,2013-07-29 01:50:00,
2013-07-28 22:00:00,65.0,61.4,29.97,WSW,250,0.0,9.0,88,0.00,,,0.00,Wunderground v.1.15,2013-07-29 02:00:00,
2013-07-28 22:05:00,65.0,61.4,29.97,WSW,250,0.0,9.0,88,0.00,,,0.00,Wunderground v.1.15,2013-07-29 02:05:00,
2013-07-28 22:10:00,65.0,61.4,29.97,WSW,250,0.0,9.0,88,0.00,,,0.00,Wunderground v.1.15,2013-07-29 02:10:00,
2013-07-28 22:15:00,64.9,61.3,29.97,WSW,250,0.0,9.0,88,0.00,,,0.00,Wunderground v.1.15,2013-07-29 02:15:00,
2013-07-28 22:20:00,64.8,61.5,29.98,WSW,250,0.0,9.0,89,0.00,,,0.00,Wunderground v.1.15,2013-07-29 02:20:00,
2013-07-28 22:25:00,64.7,61.4,29.98,WSW,250,0.0,9.0,89,0.00,,,0.00,Wunderground v.1.15,2013-07-29 02:25:00,
2013-07-28 22:30:00,64.6,61.3,29.98,WSW,250,0.0,9.0,89,0.00,,,0.00,Wunderground v.1.15,2013-07-29 02:30:00,
2013-07-28 22:35:00,64.5,61.2,29.98,WSW,250,0.0,9.0,89,0.00,,,0.00,Wunderground v.1.15,2013-07-29 02:35:00,
2013-07-28 22:40:00,64.4,61.1,29.98,WSW,250,0.0,9.0,89,0.00,,,0.00,Wunderground v.1.15,2013-07-29 02:40:00,
2013-07-28 22:45:00,64.3,61.0,29.98,WSW,250,0.0,9.0,89,0.00,,,0.00,Wunderground v.1.15,2013-07-29 02:45:00,
2013-07-28 22:50:00,64.3,61.3,29.98,WSW,250,0.0,9.0,90,0.00,,,0.00,Wunderground v.1.15,2013-07-29 02:50:00,
2013-07-28 22:55:00,64.2,61.2,29.98,WSW,250,0.0,9.0,90,0.00,,,0.00,Wunderground v.1.15,2013-07-29 02:55:00,
2013-07-28 23:00:00,64.1,60.8,29.98,WSW,250,0.0,9.0,89,0.00,,,0.00,Wunderground v.1.15,2013-07-29 03:00:00,
2013-07-28 23:10:00,64.0,61.3,29.98,WSW,250,0.0,9.0,91,0.00,,,0.00,Wunderground v.1.15,2013-07-29 03:10:00,
2013-07-28 23:20:00,63.9,60.9,29.98,WSW,250,0.0,9.0,90,0.00,,,0.00,Wunderground v.1.15,2013-07-29 03:20:00,
2013-07-28 23:25:00,63.8,60.8,29.98,WSW,250,0.0,9.0,90,0.00,,,0.00,Wunderground v.1.15,2013-07-29 03:25:00,
2013-07-28 23:35:00,63.6,60.6,29.98,WSW,250,0.0,9.0,90,0.00,,,0.00,Wunderground v.1.15,2013-07-29 03:35:00,
2013-07-28 23:40:00,63.4,60.4,29.98,WSW,250,0.0,9.0,90,0.00,,,0.00,Wunderground v.1.15,2013-07-29 03:40:00,
2013-07-28 23:45:00,63.2,60.2,29.98,WSW,250,0.0,9.0,90,0.00,,,0.00,Wunderground v.1.15,2013-07-29 03:45:00,
2013-07-28 23:50:00,63.0,60.0,29.99,WSW,250,0.0,9.0,90,0.00,,,0.00,Wunderground v.1.15,2013-07-29 03:50:00,
2013-07-28 23:55:00,62.9,59.9,29.99,WSW,250,0.0,9.0,90,0.00,,,0.00,Wunderground v.1.15,2013-07-29 03:55:00,